sat.trackr.live / text

‹ back to catalog

STARLINK-32949

NORAD 63145 · 2025-043P

PAYLOAD ACTIVE UNKNOWN

§ Identity

Operator
Country
US
Launch date
2025-03-03
Launch site
AFETR
Launch vehicle
Mass (kg)
RCS (m²)

Purposes: comms

External: N2YO · Heavens-Above · Gunter

§ Orbital elements

Epoch: 2026-09-20T05:51:07.562592Z

Period
94.27 min
Inclination
43.0003°
Eccentricity
0.0001524
Mean motion
15.27585957 rev/d
Perigee alt
482.0 km
Apogee alt
484.1 km
Semi-major
6,861.2 km
B*
3.6357e-4
RAAN
357.7698°
Arg perigee
273.2293°
Mean anomaly
86.8384°
Rev number
8,768

§ Raw data

STARLINK-329491 63145U 25043P   26263.24383753  .00009758  00000+0  36357-3 0  99922 63145  43.0003 357.7698 0001524 273.2293  86.8384 15.27585957 87686

JSON: /api/v1/satellites/63145 · /tle

For live sub-satellite position, see the globe view (requires WebGL).

§ Visibility from observer

Set your observer location to see the next 7 days of passes ≥ 10°. The values pass through the URL so the page stays shareable.

No JS? Fill the form by hand. The geolocation button needs JavaScript.